Location: Ostrava
(49.8330°N, 18.2830°E)
Time: 15:46:40
(UTC+02:00)

Explorer 7 - Visible Passes

Search period start: 28 May 2016 00:00
Search period end: 07 June 2016 00:00
Orbit: 487 x 687 km, 50.3° (Epoch: 27 May)

Date Brightness Start Highest point End Pass type
(mag) Time Alt. Az. Time Alt. Az. Time Alt. Az.
28 May 7.8 01:15:14 29° SE 01:15:14 29° SE 01:18:26 10° E visible
28 May 6.8 02:51:37 14° WSW 02:55:04 81° SSE 02:59:26 10° E visible
29 May 7.1 01:20:52 41° SSE 01:21:07 42° SSE 01:25:05 10° E visible
29 May 6.8 02:57:29 10° W 03:01:34 88° N 03:05:57 10° E visible
29 May 9.2 23:50:03 10° E 23:50:03 10° E 23:50:05 10° E visible
30 May 6.8 01:26:26 41° SSW 01:27:30 57° SSE 01:31:38 10° E visible
30 May 6.9 03:04:00 10° W 03:08:05 83° N 03:12:29 10° E visible
30 May 8.5 23:55:29 18° ESE 23:55:29 18° ESE 23:57:04 10° E visible
31 May 6.6 01:31:51 27° WSW 01:33:56 73° SSE 01:38:09 10° E visible
31 May 6.9 03:10:31 10° W 03:14:37 84° N 03:19:01 10° E visible
01 Jun 7.5 00:00:43 32° SE 00:00:43 32° SE 00:03:47 10° E visible
01 Jun 6.7 01:37:03 14° WSW 01:40:25 87° S 01:44:39 10° E visible
01 Jun 6.9 03:17:01 10° W 03:21:08 90° NE 03:25:32 10° E visible
02 Jun 6.8 00:05:31 39° SSW 00:06:26 48° SSE 00:10:22 10° E visible
02 Jun 6.8 01:42:57 10° W 01:46:57 85° N 01:51:11 10° E visible
02 Jun 6.8 03:23:31 10° W 03:27:38 79° SSW 03:32:02 10° ESE visible
02 Jun 8.0 22:32:45 19° SE 22:32:48 19° SE 22:35:39 10° E visible
03 Jun 6.6 00:09:01 10° WSW 00:12:51 65° SSE 00:16:54 10° ENE visible
03 Jun 6.8 01:49:29 10° W 01:53:27 82° N 01:57:43 10° E visible
03 Jun 6.9 03:30:01 10° W 03:34:06 63° SSW 03:38:27 10° ESE visible
03 Jun 7.5 22:35:46 10° SSW 22:39:04 28° SE 22:42:28 10° E visible
04 Jun 6.5 00:15:27 10° WSW 00:19:18 81° SSE 00:23:24 10° E visible
04 Jun 6.8 01:55:59 10° W 01:59:59 86° N 02:04:14 10° E visible
04 Jun 7.1 03:36:32 10° W 03:40:30 48° SSW 03:44:45 10° SE visible
04 Jun 7.0 22:41:48 10° SW 22:45:23 40° SSE 22:49:06 10° E visible
05 Jun 6.6 00:21:55 10° W 00:25:48 88° N 00:29:54 10° E visible
05 Jun 6.7 02:02:28 10° W 02:06:29 85° S 02:10:44 10° ESE visible
05 Jun 7.5 03:43:07 10° W 03:46:53 35° SSW 03:50:53 10° SE visible
05 Jun 6.6 22:48:03 10° SW 22:51:46 56° SSE 22:55:39 10° E visible
06 Jun 6.7 00:28:25 10° W 00:32:18 83° N 00:36:26 10° E visible
06 Jun 6.7 02:08:58 10° W 02:12:57 71° SSW 02:17:12 10° ESE visible
06 Jun 7.9 03:49:49 10° W 03:53:12 24° SW 03:56:45 10° SSE visible
06 Jun 6.5 22:54:25 10° WSW 22:58:12 73° SSE 23:02:10 10° E visible
